Location: Oshawa
(43.9000°N, 78.8670°W)
Time: 05:22:24
(UTC-04:00)

Iridium 54 - Visible Passes

Search period start: 28 March 2015 00:00
Search period end: 07 April 2015 00:00
Orbit: 776 x 779 km, 86.4° (Epoch: 27 March)

Date Brightness Start Highest point End Pass type
(mag) Time Alt. Az. Time Alt. Az. Time Alt. Az.
28 Mar 7.0 21:15:06 10° NNE 21:18:10 19° ENE 21:18:10 19° ENE visible
28 Mar 6.6 22:54:50 10° NNW 22:58:40 43° NW 22:58:40 43° NW visible
29 Mar 7.5 20:43:36 10° NE 20:44:43 11° ENE 20:45:05 11° ENE visible
29 Mar 5.7 22:21:11 10° N 22:25:35 63° N 22:25:35 63° N visible
30 Mar 8.2 00:04:31 10° NW 00:06:04 12° WNW 00:06:04 12° WNW visible
30 Mar 5.8 21:47:46 10° N 21:52:30 47° ENE 21:52:30 47° ENE visible
30 Mar 7.6 23:29:19 10° NNW 23:33:00 21° WNW 23:33:00 21° WNW visible
31 Mar 6.5 21:14:41 10° NNE 21:19:03 27° ENE 21:19:28 27° E visible
31 Mar 6.7 22:55:07 10° NNW 22:59:55 37° W 22:59:58 37° W visible
01 Apr 7.1 20:42:08 10° NE 20:45:07 16° ENE 20:46:26 15° E visible
01 Apr 5.7 22:21:18 10° N 22:26:30 67° W 22:26:56 64° WSW visible
02 Apr 5.4 21:47:45 10° N 21:52:58 68° E 21:53:57 55° SE visible
02 Apr 8.0 23:30:09 10° NW 23:33:10 15° WNW 23:34:26 14° W visible
03 Apr 6.1 21:14:27 10° NNE 21:19:17 38° E 21:20:59 30° ESE visible
03 Apr 7.3 22:55:32 10° NNW 22:59:53 27° W 23:01:29 22° WSW visible
04 Apr 6.8 20:41:31 10° NNE 20:45:27 22° ENE 20:48:02 16° ESE visible
04 Apr 6.4 22:21:31 10° NNW 22:26:31 47° W 22:28:33 31° SW visible
05 Apr 5.5 21:47:48 10° N 21:53:03 85° W 21:55:38 31° S visible
05 Apr 8.4 23:32:09 10° WNW 23:33:02 10° WNW 23:33:34 10° W visible
06 Apr 5.6 21:14:21 10° N 21:19:28 54° E 21:22:46 21° SSE visible
06 Apr 7.9 22:56:08 10° NW 22:59:48 19° W 23:03:17 10° WSW visible
